Hays, KS

11:20 AM CST on November 12, 2019 (GMT -0600)
Hays Regional

Weather History for KHYS - October, 2019

Change the Weather History Date:

Sunday, October 20, 2019

  Actual Average Record
Temperature  
Mean Temperature 54 °F -  
Max Temperature 66 °F 64 °F 89 °F (2003)
Min Temperature 45 °F 40 °F 28 °F (2011)
Degree Days  
Heating Degree Days 10    
Growing Degree Days 4 (Base 50)    
Moisture  
Dew Point 36 °F    
Average Humidity 52    
Maximum Humidity 74    
Minimum Humidity 21    
Precipitation  
Precipitation 0.00 in - - ()
Sea Level Pressure  
Sea Level Pressure 29.66 in    
Wind  
Wind Speed 13 mph (SSW)    
Max Wind Speed 24 mph    
Max Gust Speed 37 mph    
Visibility 10 miles    
Events      
Averages and records for this station are not official NWS values.
T = Trace of Precipitation, MM = Missing Value Source: NWS Daily Summary

Daily Weather History Graph

Daily Weather History Graph

Search for Another Location

Airport or City:

Astronomy

Oct. 20, 2019 Rise Set
Actual Time 7:51 AM CDT 6:51 PM CDT
Civil Twilight 7:24 AM CDT 7:18 PM CDT
Nautical Twilight 6:53 AM CDT 7:49 PM CDT
Astronomical Twilight 6:22 AM CDT 8:20 PM CDT
Moon No Moon Rise 2:18 PM CDT (10/20)
Length of Visible Light 11h 54m
Length of Day
11h 00m
Waning Gibbous, 59% of the Moon is Illuminated
Oct 20
Waning Gibbous
Oct 21
Last Quarter
Oct 27
New
Nov 4
First Quarter
Nov 12
Full

Hourly Weather History & Observations

Time (CDT) Temp. Windchill Dew Point Humidity Pressure Visibility Wind Dir Wind Speed Gust Speed Precip Events Conditions
12:56 AM 45.0 °F 39.7 °F 37.0 °F 74% 29.76 in 10.0 mi SE 10.4 mph - N/A   Clear
1:56 AM 46.0 °F 41.4 °F 36.0 °F 68% 29.74 in 10.0 mi SSE 9.2 mph - N/A   Clear
2:56 AM 46.0 °F 41.9 °F 36.0 °F 68% 29.73 in 10.0 mi SE 8.1 mph - N/A   Clear
3:56 AM 48.0 °F - 37.0 °F 66% 29.70 in 10.0 mi SSE 12.7 mph - N/A   Clear
4:56 AM 48.9 °F - 37.9 °F 66% 29.66 in 10.0 mi SE 12.7 mph - N/A   Clear
5:56 AM 52.0 °F - 39.9 °F 63% 29.65 in 10.0 mi SSE 16.1 mph - N/A   Clear
6:56 AM 52.0 °F - 41.0 °F 66% 29.64 in 10.0 mi SSE 12.7 mph - N/A   Clear
7:56 AM 54.0 °F - 42.1 °F 64% 29.63 in 10.0 mi South 15.0 mph - N/A   Clear
8:56 AM 54.0 °F - 44.1 °F 69% 29.64 in 10.0 mi SSE 17.3 mph 24.2 mph N/A   Clear
9:56 AM 55.9 °F - 46.0 °F 69% 29.65 in 10.0 mi South 17.3 mph - N/A   Clear
10:56 AM 59.0 °F - 46.0 °F 62% 29.66 in 10.0 mi South 18.4 mph 24.2 mph N/A   Clear
11:56 AM 61.0 °F - 45.0 °F 56% 29.63 in 10.0 mi South 24.2 mph 31.1 mph N/A   Clear
12:56 PM 64.0 °F - 45.0 °F 50% 29.61 in 10.0 mi SW 19.6 mph 25.3 mph N/A   Partly Cloudy
1:56 PM 64.9 °F - 41.0 °F 42% 29.59 in 10.0 mi West 13.8 mph 23.0 mph N/A   Scattered Clouds
2:56 PM 64.0 °F - 30.0 °F 28% 29.60 in 10.0 mi NNW 18.4 mph 23.0 mph N/A   Clear
3:56 PM 64.0 °F - 28.9 °F 27% 29.61 in 10.0 mi NW 13.8 mph - N/A   Clear
4:56 PM 62.1 °F - 21.9 °F 21% 29.64 in 10.0 mi WNW 20.7 mph 36.8 mph N/A   Clear
5:56 PM 60.1 °F - 24.1 °F 25% 29.65 in 10.0 mi West 9.2 mph - N/A   Clear
6:56 PM 55.0 °F - 27.0 °F 34% 29.66 in 10.0 mi SSW 6.9 mph - N/A   Partly Cloudy
7:56 PM 52.0 °F - 28.0 °F 40% 29.67 in 10.0 mi WNW 3.5 mph - N/A   Clear
8:56 PM 48.0 °F - 30.0 °F 50% 29.70 in 10.0 mi WNW 11.5 mph - N/A   Clear
9:56 PM 54.0 °F - 28.9 °F 38% 29.71 in 10.0 mi West 20.7 mph 24.2 mph N/A   Clear
10:56 PM 51.1 °F - 30.0 °F 44% 29.70 in 10.0 mi WNW 21.9 mph 32.2 mph N/A   Clear